| time (UTC) | temp C | wind direction | speed KPH | gust KPH | rain 1hr cm | rain 24hr cm | rain mn cm | humidity % | barometer mb |
| 20260510190001 | 25 | 172 | 0.0 | 8.0 | 0.00 | 0.00 | 0.00 | 52 | 1019.1 |
| 20260510184500 | 25 | 149 | 1.6 | 11.3 | 0.00 | 0.00 | 0.00 | 53 | 1019.1 |
| 20260510183104 | 25 | 163 | 6.4 | 12.9 | 0.00 | 0.00 | 0.00 | 57 | 1019.3 |
| 20260510181601 | 25 | 108 | 1.6 | 8.0 | 0.00 | 0.00 | 0.00 | 55 | 1019.4 |
| 20260510180055 | 24 | 136 | 4.8 | 8.0 | 0.00 | 0.00 | 0.00 | 59 | 1019.5 |
| 20260510174554 | 24 | 171 | 3.2 | 14.5 | 0.00 | 0.00 | 0.00 | 62 | 1019.7 |
| 20260510173051 | 24 | 172 | 4.8 | 12.9 | 0.00 | 0.00 | 0.00 | 64 | 1019.9 |
| 20260510171552 | 23 | 285 | 0.0 | 11.3 | 0.00 | 0.00 | 0.00 | 65 | 1020.0 |
| 20260510170054 | 23 | 211 | 3.2 | 11.3 | 0.00 | 0.00 | 0.00 | 69 | 1020.1 |
| 20260510150005 | 18 | 198 | 0.0 | 6.4 | 0.00 | 0.00 | 0.00 | 100 | 1020.3 |
| 20260510144501 | 17 | 179 | 1.6 | 4.8 | 0.00 | 0.00 | 0.00 | 100 | 1020.2 |
| 20260510143056 | 17 | 180 | 1.6 | 6.4 | 0.00 | 0.00 | 0.00 | 100 | 1020.2 |
| 20260510141557 | 16 | 183 | 1.6 | 6.4 | 0.00 | 0.00 | 0.00 | 100 | 1020.1 |
| 20260510140054 | 16 | 186 | 1.6 | 4.8 | 0.00 | 0.00 | 0.00 | 100 | 1020.1 |
| 20260510134543 | 16 | 186 | 1.6 | 4.8 | 0.00 | 0.00 | 0.00 | 100 | 1020.2 |
| 20260510133038 | 15 | 201 | 0.0 | 6.4 | 0.00 | 0.00 | 0.00 | 100 | 1020.1 |
| 20260510131534 | 15 | 237 | 0.0 | 4.8 | 0.00 | 0.00 | 0.00 | 100 | 1020.1 |
| 20260510130030 | 15 | 239 | 0.0 | 3.2 | 0.00 | 0.00 | 0.00 | 100 | 1020.0 |
| 20260510124626 | 14 | 239 | 0.0 | 1.6 | 0.00 | 0.00 | 0.00 | 100 | 1020.0 |
| 20260510123021 | 13 | 240 | 0.0 | 1.6 | 0.00 | 0.00 | 0.00 | 100 | 1019.9 |
| 20260510121517 | 13 | 240 | 0.0 | 0.0 | 0.00 | 0.00 | 0.00 | 100 | 1019.7 |
| 20260510120017 | 12 | 240 | 0.0 | 0.0 | 0.00 | 0.00 | 0.00 | 100 | 1019.2 |
| 20260510114509 | 12 | 240 | 0.0 | 0.0 | 0.00 | 0.00 | 0.00 | 100 | 1019.0 |
| 20260510113004 | 11 | 240 | 0.0 | 0.0 | 0.00 | 0.00 | 0.00 | 100 | 1018.7 |
| 20260510111600 | 11 | 240 | 0.0 | 0.0 | 0.00 | 0.00 | 0.00 | 100 | 1018.4 |
| 20260510110058 | 11 | 240 | 0.0 | 0.0 | 0.00 | 0.00 | 0.00 | 100 | 1018.2 |
| 20260510104552 | 11 | 240 | 0.0 | 0.0 | 0.00 | 0.00 | 0.00 | 100 | 1017.9 |
| 20260510103057 | 11 | 240 | 0.0 | 0.0 | 0.00 | 0.00 | 0.00 | 100 | 1017.8 |
| 20260510101547 | 11 | 240 | 0.0 | 0.0 | 0.00 | 0.00 | 0.00 | 100 | 1017.7 |
| 20260510100040 | 11 | 240 | 0.0 | 0.0 | 0.00 | 0.00 | 0.00 | 100 | 1017.6 |
| 20260510094541 | 11 | 240 | 0.0 | 0.0 | 0.00 | 0.00 | 0.00 | 100 | 1017.4 |
| 20260510093030 | 11 | 240 | 0.0 | 0.0 | 0.00 | 0.00 | 0.00 | 100 | 1017.2 |
| 20260510091524 | 11 | 240 | 0.0 | 0.0 | 0.00 | 0.00 | 0.00 | 100 | 1017.3 |
| 20260510090021 | 11 | 240 | 0.0 | 0.0 | 0.00 | 0.00 | 0.00 | 100 | 1017.4 |
| 20260510084516 | 11 | 240 | 0.0 | 0.0 | 0.00 | 0.00 | 0.00 | 100 | 1017.4 |
| 20260510083012 | 11 | 240 | 0.0 | 0.0 | 0.00 | 0.00 | 0.00 | 100 | 1017.2 |
| 20260510081519 | 12 | 240 | 0.0 | 0.0 | 0.00 | 0.00 | 0.00 | 100 | 1017.0 |
| 20260510080004 | 11 | 240 | 0.0 | 0.0 | 0.00 | 0.00 | 0.00 | 100 | 1016.8 |
| 20260510074600 | 12 | 240 | 0.0 | 0.0 | 0.00 | 0.00 | 0.00 | 100 | 1016.7 |
| 20260510073104 | 12 | 240 | 0.0 | 0.0 | 0.00 | 0.00 | 0.00 | 100 | 1016.5 |
| 20260510071550 | 12 | 240 | 0.0 | 0.0 | 0.00 | 0.00 | 0.00 | 100 | 1016.6 |
| 20260510070047 | 12 | 240 | 0.0 | 0.0 | 0.00 | 0.00 | 0.00 | 100 | 1016.6 |
| 20260510064541 | 12 | 240 | 0.0 | 0.0 | 0.00 | 0.00 | 0.00 | 100 | 1016.7 |
| 20260510063038 | 12 | 240 | 0.0 | 0.0 | 0.00 | 0.00 | 0.00 | 100 | 1016.6 |
| 20260510061533 | 12 | 240 | 0.0 | 0.0 | 0.00 | 0.00 | 0.00 | 100 | 1016.6 |
| 20260510060030 | 13 | 240 | 0.0 | 0.0 | 0.00 | 0.00 | 0.00 | 100 | 1016.7 |
| 20260510054526 | 13 | 240 | 0.0 | 0.0 | 0.00 | 0.00 | 0.00 | 100 | 1016.6 |
| 20260510053020 | 13 | 240 | 0.0 | 0.0 | 0.00 | 0.00 | 0.00 | 100 | 1016.8 |
| 20260510051527 | 14 | 240 | 0.0 | 0.0 | 0.00 | 0.00 | 0.00 | 100 | 1016.8 |
| 20260510050011 | 13 | 240 | 0.0 | 0.0 | 0.00 | 0.00 | 0.00 | 100 | 1016.8 |
| 20260510044509 | 13 | 240 | 0.0 | 0.0 | 0.00 | 0.00 | 0.00 | 100 | 1016.8 |
| 20260510043010 | 14 | 240 | 0.0 | 3.2 | 0.00 | 0.00 | 0.00 | 100 | 1016.8 |
| 20260510041635 | 13 | 277 | 0.0 | 1.6 | 0.00 | 0.00 | 0.00 | 100 | 1016.8 |
| 20260510040053 | 13 | 293 | 0.0 | 0.0 | 0.00 | 0.00 | 0.00 | 100 | 1017.0 |
| 20260510034556 | 13 | 293 | 0.0 | 3.2 | 0.00 | 0.00 | 0.00 | 100 | 1017.0 |
| 20260510033051 | 14 | 293 | 0.0 | 0.0 | 0.00 | 0.00 | 0.00 | 100 | 1016.9 |
| 20260510031550 | 13 | 293 | 0.0 | 0.0 | 0.00 | 0.00 | 0.00 | 100 | 1016.8 |
| 20260510030038 | 14 | 293 | 0.0 | 1.6 | 0.00 | 0.00 | 0.00 | 100 | 1016.8 |
| 20260510024536 | 14 | 293 | 0.0 | 0.0 | 0.00 | 0.00 | 0.00 | 100 | 1016.5 |
| 20260510023028 | 15 | 293 | 0.0 | 0.0 | 0.00 | 0.00 | 0.00 | 100 | 1016.3 |
| 20260510021529 | 15 | 293 | 0.0 | 1.6 | 0.00 | 0.00 | 0.00 | 100 | 1016.0 |
| 20260510020020 | 15 | 293 | 0.0 | 1.6 | 0.00 | 0.00 | 0.00 | 100 | 1015.6 |
| 20260510014516 | 15 | 293 | 0.0 | 0.0 | 0.00 | 0.00 | 0.00 | 28 | 1015.1 |
| 20260510013013 | 16 | 294 | 0.0 | 0.0 | 0.00 | 0.00 | 0.00 | 43 | 1014.8 |
| 20260510011506 | 17 | 293 | 0.0 | 0.0 | 0.00 | 0.00 | 0.00 | 59 | 1014.6 |
| 20260510010002 | 18 | 293 | 0.0 | 0.0 | 0.00 | 0.00 | 0.00 | 67 | 1014.3 |
| 20260510004604 | 20 | 293 | 0.0 | 0.0 | 0.00 | 0.00 | 0.00 | 68 | 1014.1 |
| 20260510003054 | 22 | 293 | 0.0 | 0.0 | 0.00 | 0.00 | 0.00 | 70 | 1013.9 |
| 20260510001549 | 23 | 293 | 0.0 | 0.0 | 0.00 | 0.00 | 0.00 | 65 | 1013.7 |
| 20260510000046 | 24 | 293 | 0.0 | 4.8 | 0.00 | 0.00 | 0.00 | 64 | 1013.7 |
| 20260509234540 | 24 | 265 | 0.0 | 3.2 | 0.00 | 0.00 | 0.00 | 65 | 1013.5 |
| 20260509233036 | 23 | 265 | 1.6 | 4.8 | 0.00 | 0.00 | 0.00 | 67 | 1013.7 |
| 20260509231531 | 24 | 267 | 1.6 | 4.8 | 0.00 | 0.00 | 0.00 | 64 | 1013.7 |
| 20260509230027 | 23 | 266 | 0.0 | 3.2 | 0.00 | 0.00 | 0.00 | 68 | 1013.6 |
| 20260509224522 | 23 | 266 | 1.6 | 3.2 | 0.00 | 0.00 | 0.00 | 67 | 1013.6 |
| 20260509223020 | 23 | 243 | 4.8 | 9.7 | 0.00 | 0.00 | 0.00 | 62 | 1013.5 |
| 20260509221514 | 23 | 236 | 1.6 | 8.0 | 0.00 | 0.00 | 0.00 | 63 | 1013.4 |
| 20260509220009 | 23 | 267 | 4.8 | 11.3 | 0.00 | 0.00 | 0.00 | 59 | 1013.2 |
| 20260509214505 | 24 | 281 | 4.8 | 6.4 | 0.00 | 0.00 | 0.00 | 61 | 1013.0 |
| 20260509213002 | 24 | 229 | 4.8 | 11.3 | 0.00 | 0.00 | 0.00 | 59 | 1013.1 |
| 20260509211600 | 23 | 336 | 4.8 | 12.9 | 0.00 | 0.00 | 0.00 | 61 | 1013.1 |
| 20260509204548 | 23 | 270 | 9.7 | 16.1 | 0.00 | 0.00 | 0.00 | 59 | 1013.4 |
| 20260509203043 | 23 | 285 | 3.2 | 8.0 | 0.00 | 0.00 | 0.00 | 62 | 1013.7 |
| 20260509201539 | 23 | 234 | 9.7 | 14.5 | 0.00 | 0.00 | 0.00 | 61 | 1013.7 |
| 20260509200040 | 23 | 240 | 8.0 | 16.1 | 0.00 | 0.00 | 0.00 | 61 | 1013.6 |
| 20260509194533 | 23 | 280 | 1.6 | 8.0 | 0.00 | 0.00 | 0.00 | 63 | 1013.7 |
| 20260509193028 | 23 | 217 | 1.6 | 11.3 | 0.00 | 0.00 | 0.00 | 66 | 1013.8 |
| 20260509191525 | 23 | 226 | 6.4 | 16.1 | 0.00 | 0.00 | 0.00 | 64 | 1014.0 |